Year,Month,Day,Hour,Minute,Value (Times are PST for windspeed in km/hr)
2018,04,11,00,00,0.00
2018,04,11,00,01,0.00
2018,04,11,00,02,0.00
2018,04,11,00,03,0.00
2018,04,11,00,04,0.00
2018,04,11,00,05,0.00
2018,04,11,00,06,0.00
2018,04,11,00,07,0.00
2018,04,11,00,08,0.10
2018,04,11,00,09,0.00
2018,04,11,00,10,0.00
2018,04,11,00,11,0.00
2018,04,11,00,12,0.00
2018,04,11,00,13,0.00
2018,04,11,00,14,0.00
2018,04,11,00,15,0.00
2018,04,11,00,16,0.00
2018,04,11,00,17,0.00
2018,04,11,00,18,0.00
2018,04,11,00,19,0.60
2018,04,11,00,20,0.60
2018,04,11,00,21,0.00
2018,04,11,00,22,0.60
2018,04,11,00,23,0.90
2018,04,11,00,24,0.50
2018,04,11,00,25,0.00
2018,04,11,00,26,0.10
2018,04,11,00,27,0.00
2018,04,11,00,28,0.00
2018,04,11,00,29,0.00
2018,04,11,00,30,1.00
2018,04,11,00,31,3.50
2018,04,11,00,32,2.70
2018,04,11,00,33,3.10
2018,04,11,00,34,2.00
2018,04,11,00,35,1.00
2018,04,11,00,36,1.40
2018,04,11,00,37,0.40
2018,04,11,00,38,0.10
2018,04,11,00,39,0.10
2018,04,11,00,40,1.40
2018,04,11,00,41,0.10
2018,04,11,00,42,0.00
2018,04,11,00,43,0.00
2018,04,11,00,44,0.00
2018,04,11,00,45,0.00
2018,04,11,00,46,0.00
2018,04,11,00,47,0.00
2018,04,11,00,48,0.00
2018,04,11,00,49,0.00
2018,04,11,00,50,0.00
2018,04,11,00,51,0.00
2018,04,11,00,52,0.00
2018,04,11,00,53,0.00
2018,04,11,00,54,0.00
2018,04,11,00,55,0.00
2018,04,11,00,56,0.00
2018,04,11,00,57,0.00
2018,04,11,00,58,0.00
2018,04,11,00,59,0.00
2018,04,11,01,00,0.00
2018,04,11,01,01,0.00
2018,04,11,01,02,0.00
2018,04,11,01,03,0.00
2018,04,11,01,04,0.00
2018,04,11,01,05,0.00
2018,04,11,01,06,0.00
2018,04,11,01,07,0.00
2018,04,11,01,08,0.00
2018,04,11,01,09,0.00
2018,04,11,01,10,0.00
2018,04,11,01,11,0.00
2018,04,11,01,12,0.00
2018,04,11,01,13,0.00
2018,04,11,01,14,0.00
2018,04,11,01,15,0.00
2018,04,11,01,16,0.00
2018,04,11,01,17,0.00
2018,04,11,01,18,0.00
2018,04,11,01,19,0.00
2018,04,11,01,20,0.00
2018,04,11,01,21,0.00
2018,04,11,01,22,0.00
2018,04,11,01,23,0.00
2018,04,11,01,24,0.00
2018,04,11,01,25,0.00
2018,04,11,01,26,0.00
2018,04,11,01,27,0.00
2018,04,11,01,28,0.00
2018,04,11,01,29,0.00
2018,04,11,01,30,0.00
2018,04,11,01,31,0.00
2018,04,11,01,32,0.00
2018,04,11,01,33,0.00
2018,04,11,01,34,0.00
2018,04,11,01,35,0.00
2018,04,11,01,36,0.00
2018,04,11,01,37,0.00
2018,04,11,01,38,0.00
2018,04,11,01,39,0.00
2018,04,11,01,40,0.00
2018,04,11,01,41,0.00
2018,04,11,01,42,0.30
2018,04,11,01,43,0.50
2018,04,11,01,44,0.00
2018,04,11,01,45,0.00
2018,04,11,01,46,0.00
2018,04,11,01,47,0.00
2018,04,11,01,48,0.00
2018,04,11,01,49,0.00
2018,04,11,01,50,0.00
2018,04,11,01,51,0.00
2018,04,11,01,52,0.00
2018,04,11,01,53,0.00
2018,04,11,01,54,0.00
2018,04,11,01,55,0.00
2018,04,11,01,56,0.00
2018,04,11,01,57,0.00
2018,04,11,01,58,0.00
2018,04,11,01,59,0.00
2018,04,11,02,00,0.00
2018,04,11,02,01,0.00
2018,04,11,02,02,0.00
2018,04,11,02,03,0.00
2018,04,11,02,04,0.00
2018,04,11,02,05,0.00
2018,04,11,02,06,0.00
2018,04,11,02,07,0.00
2018,04,11,02,08,0.00
2018,04,11,02,09,0.00
2018,04,11,02,10,0.00
2018,04,11,02,11,0.00
2018,04,11,02,12,0.00
2018,04,11,02,13,0.00
2018,04,11,02,14,0.00
2018,04,11,02,15,0.00
2018,04,11,02,16,0.00
2018,04,11,02,17,0.00
2018,04,11,02,18,0.00
2018,04,11,02,19,0.00
2018,04,11,02,20,0.00
2018,04,11,02,21,0.00
2018,04,11,02,22,0.00
2018,04,11,02,23,0.00
2018,04,11,02,24,2.30
2018,04,11,02,25,0.20
2018,04,11,02,26,0.20
2018,04,11,02,27,1.80
2018,04,11,02,28,1.50
2018,04,11,02,29,1.20
2018,04,11,02,30,0.40
2018,04,11,02,31,0.00
2018,04,11,02,32,2.70
2018,04,11,02,33,1.00
2018,04,11,02,34,0.10
2018,04,11,02,35,0.20
2018,04,11,02,36,0.00
2018,04,11,02,37,0.00
2018,04,11,02,38,0.00
2018,04,11,02,39,0.00
2018,04,11,02,40,0.00
2018,04,11,02,41,0.00
2018,04,11,02,42,0.00
2018,04,11,02,43,0.00
2018,04,11,02,44,0.00
2018,04,11,02,45,0.00
2018,04,11,02,46,0.00
2018,04,11,02,47,0.00
2018,04,11,02,48,0.00
2018,04,11,02,49,0.00
2018,04,11,02,50,0.00
2018,04,11,02,51,0.00
2018,04,11,02,52,0.00
2018,04,11,02,53,0.00
2018,04,11,02,54,0.00
2018,04,11,02,55,0.00
2018,04,11,02,56,0.00
2018,04,11,02,57,0.00
2018,04,11,02,58,0.00
2018,04,11,02,59,0.00
2018,04,11,03,00,0.00
2018,04,11,03,01,0.00
2018,04,11,03,02,0.00
2018,04,11,03,03,0.00
2018,04,11,03,04,0.00
2018,04,11,03,05,0.00
2018,04,11,03,06,0.00
2018,04,11,03,07,0.00
2018,04,11,03,08,0.00
2018,04,11,03,09,0.00
2018,04,11,03,10,0.00
2018,04,11,03,11,0.00
2018,04,11,03,12,0.00
2018,04,11,03,13,0.00
2018,04,11,03,14,0.00
2018,04,11,03,15,0.00
2018,04,11,03,16,0.00
2018,04,11,03,17,0.00
2018,04,11,03,18,0.00
2018,04,11,03,19,0.00
2018,04,11,03,20,0.00
2018,04,11,03,21,0.00
2018,04,11,03,22,0.00
2018,04,11,03,23,0.00
2018,04,11,03,24,0.80
2018,04,11,03,25,2.50
2018,04,11,03,26,3.50
2018,04,11,03,27,2.70
2018,04,11,03,28,3.00
2018,04,11,03,29,4.20
2018,04,11,03,30,1.40
2018,04,11,03,31,0.70
2018,04,11,03,32,3.40
2018,04,11,03,33,1.20
2018,04,11,03,34,0.00
2018,04,11,03,35,1.10
2018,04,11,03,36,3.00
2018,04,11,03,37,1.00
2018,04,11,03,38,0.00
2018,04,11,03,39,0.10
2018,04,11,03,40,0.60
2018,04,11,03,41,1.80
2018,04,11,03,42,1.80
2018,04,11,03,43,0.70
2018,04,11,03,44,0.00
2018,04,11,03,45,0.00
2018,04,11,03,46,0.00
2018,04,11,03,47,0.00
2018,04,11,03,48,0.10
2018,04,11,03,49,0.00
2018,04,11,03,50,0.00
2018,04,11,03,51,0.00
2018,04,11,03,52,0.00
2018,04,11,03,53,0.00
2018,04,11,03,54,0.00
2018,04,11,03,55,0.00
2018,04,11,03,56,0.00
2018,04,11,03,57,0.00
2018,04,11,03,58,0.00
2018,04,11,03,59,0.00
2018,04,11,04,00,0.00
2018,04,11,04,01,0.00
2018,04,11,04,02,0.00
2018,04,11,04,03,0.00
2018,04,11,04,04,0.00
2018,04,11,04,05,0.00
2018,04,11,04,06,0.00
2018,04,11,04,07,0.00
2018,04,11,04,08,0.00
2018,04,11,04,09,0.00
2018,04,11,04,10,0.00
2018,04,11,04,11,0.00
2018,04,11,04,12,0.00
2018,04,11,04,13,0.00
2018,04,11,04,14,0.00
2018,04,11,04,15,0.00
2018,04,11,04,16,0.00
2018,04,11,04,17,0.00
2018,04,11,04,18,0.00
2018,04,11,04,19,0.00
2018,04,11,04,20,0.00
2018,04,11,04,21,0.00
2018,04,11,04,22,0.00
2018,04,11,04,23,0.00
2018,04,11,04,24,0.00
2018,04,11,04,25,0.00
2018,04,11,04,26,0.00
2018,04,11,04,27,0.00
2018,04,11,04,28,0.00
2018,04,11,04,29,0.00
2018,04,11,04,30,0.00
2018,04,11,04,31,0.00
2018,04,11,04,32,0.00
2018,04,11,04,33,0.00
2018,04,11,04,34,0.00
2018,04,11,04,35,0.00
2018,04,11,04,36,0.00
2018,04,11,04,37,0.00
2018,04,11,04,38,0.00
2018,04,11,04,39,0.00
2018,04,11,04,40,0.00
2018,04,11,04,41,0.00
2018,04,11,04,42,0.00
2018,04,11,04,43,0.00
2018,04,11,04,44,0.00
2018,04,11,04,45,0.00
2018,04,11,04,46,0.00
2018,04,11,04,47,0.00
2018,04,11,04,48,0.00
2018,04,11,04,49,0.00
2018,04,11,04,50,0.00
2018,04,11,04,51,0.00
2018,04,11,04,52,0.00
2018,04,11,04,53,0.00
2018,04,11,04,54,0.00
2018,04,11,04,55,0.00
2018,04,11,04,56,0.00
2018,04,11,04,57,0.00
2018,04,11,04,58,0.00
2018,04,11,04,59,0.00
2018,04,11,05,00,0.00
2018,04,11,05,01,0.00
2018,04,11,05,02,0.00
2018,04,11,05,03,1.60
2018,04,11,05,04,1.90
2018,04,11,05,05,1.60
2018,04,11,05,06,0.60
2018,04,11,05,07,0.20
2018,04,11,05,08,0.00
2018,04,11,05,09,0.40
2018,04,11,05,10,1.80
2018,04,11,05,11,1.20
2018,04,11,05,12,1.40
2018,04,11,05,13,1.90
2018,04,11,05,14,1.60
2018,04,11,05,15,2.30
2018,04,11,05,16,0.50
2018,04,11,05,17,0.00
2018,04,11,05,18,0.30
2018,04,11,05,19,0.30
2018,04,11,05,20,0.00
2018,04,11,05,21,0.00
2018,04,11,05,22,1.60
2018,04,11,05,23,2.80
2018,04,11,05,24,2.50
2018,04,11,05,25,3.10
2018,04,11,05,26,0.40
2018,04,11,05,27,0.00
2018,04,11,05,28,1.90
2018,04,11,05,29,2.30
2018,04,11,05,30,3.80
2018,04,11,05,31,2.70
2018,04,11,05,32,2.80
2018,04,11,05,33,3.70
2018,04,11,05,34,1.50
2018,04,11,05,35,2.90
2018,04,11,05,36,1.90
2018,04,11,05,37,3.40
2018,04,11,05,38,2.00
2018,04,11,05,39,1.30
2018,04,11,05,40,1.50
2018,04,11,05,41,3.70
2018,04,11,05,42,2.90
2018,04,11,05,43,1.70
2018,04,11,05,44,1.60
2018,04,11,05,45,0.00
2018,04,11,05,46,0.50
2018,04,11,05,47,0.10
2018,04,11,05,48,0.00
2018,04,11,05,49,0.60
2018,04,11,05,50,2.60
2018,04,11,05,51,3.20
2018,04,11,05,52,1.40
2018,04,11,05,53,0.50
2018,04,11,05,54,0.20
2018,04,11,05,55,0.00
2018,04,11,05,56,0.00
2018,04,11,05,57,0.20
2018,04,11,05,58,1.80
2018,04,11,05,59,3.60
2018,04,11,06,00,3.80
2018,04,11,06,01,4.10
2018,04,11,06,02,0.80
2018,04,11,06,03,2.70
2018,04,11,06,04,5.60
2018,04,11,06,05,5.90
2018,04,11,06,06,4.20
2018,04,11,06,07,4.00
2018,04,11,06,08,5.60
2018,04,11,06,09,7.10
2018,04,11,06,10,4.30
2018,04,11,06,11,1.50
2018,04,11,06,12,0.70
2018,04,11,06,13,3.90
2018,04,11,06,14,5.20
2018,04,11,06,15,6.50
2018,04,11,06,16,4.30
2018,04,11,06,17,4.00
2018,04,11,06,18,2.50
2018,04,11,06,19,4.70
2018,04,11,06,20,4.00
2018,04,11,06,21,6.10
2018,04,11,06,22,5.70
2018,04,11,06,23,5.20
2018,04,11,06,24,4.70
2018,04,11,06,25,4.70
2018,04,11,06,26,7.00
2018,04,11,06,27,5.30
2018,04,11,06,28,4.50
2018,04,11,06,29,5.00
2018,04,11,06,30,7.20
2018,04,11,06,31,4.30
2018,04,11,06,32,2.70
2018,04,11,06,33,2.30
2018,04,11,06,34,4.70
2018,04,11,06,35,1.10
2018,04,11,06,36,1.20
2018,04,11,06,37,0.10
2018,04,11,06,38,0.70
2018,04,11,06,39,1.70
2018,04,11,06,40,0.60
2018,04,11,06,41,1.00
2018,04,11,06,42,1.90
2018,04,11,06,43,0.10
2018,04,11,06,44,2.60
2018,04,11,06,45,4.80
2018,04,11,06,46,3.90
2018,04,11,06,47,3.80
2018,04,11,06,48,6.10
2018,04,11,06,49,4.60
2018,04,11,06,50,5.00
2018,04,11,06,51,6.10
2018,04,11,06,52,5.10
2018,04,11,06,53,4.00
2018,04,11,06,54,7.40
2018,04,11,06,55,5.60
2018,04,11,06,56,6.60
2018,04,11,06,57,8.00
2018,04,11,06,58,6.30
2018,04,11,06,59,3.50
2018,04,11,07,00,7.90
2018,04,11,07,01,6.00
2018,04,11,07,02,5.20
2018,04,11,07,03,2.20
2018,04,11,07,04,3.60
2018,04,11,07,05,2.70
2018,04,11,07,06,7.50
2018,04,11,07,07,4.60
2018,04,11,07,08,3.00
2018,04,11,07,09,5.60
2018,04,11,07,10,4.40
2018,04,11,07,11,5.10
2018,04,11,07,12,2.60
2018,04,11,07,13,3.20
2018,04,11,07,14,2.80
2018,04,11,07,15,2.30
2018,04,11,07,16,3.80
2018,04,11,07,17,1.90
2018,04,11,07,18,0.00
2018,04,11,07,19,3.10
2018,04,11,07,20,4.30
2018,04,11,07,21,5.10
2018,04,11,07,22,5.20
2018,04,11,07,23,5.50
2018,04,11,07,24,3.60
2018,04,11,07,25,0.60
2018,04,11,07,26,4.80
2018,04,11,07,27,9.50
2018,04,11,07,28,13.50
2018,04,11,07,29,14.30
2018,04,11,07,30,13.20
2018,04,11,07,31,11.20
2018,04,11,07,32,8.50
2018,04,11,07,33,6.80
2018,04,11,07,34,10.80
2018,04,11,07,35,10.40
2018,04,11,07,36,12.50
2018,04,11,07,37,9.40
2018,04,11,07,38,9.70
2018,04,11,07,39,8.30
2018,04,11,07,40,6.60
2018,04,11,07,41,7.80
2018,04,11,07,42,4.80
2018,04,11,07,43,5.30
2018,04,11,07,44,11.40
2018,04,11,07,45,8.80
2018,04,11,07,46,7.40
2018,04,11,07,47,8.20
2018,04,11,07,48,9.30
2018,04,11,07,49,8.50
2018,04,11,07,50,10.00
2018,04,11,07,51,15.00
2018,04,11,07,52,10.30
2018,04,11,07,53,9.90
2018,04,11,07,54,6.10
2018,04,11,07,55,3.10
2018,04,11,07,56,2.30
2018,04,11,07,57,5.60
2018,04,11,07,58,12.50
2018,04,11,07,59,12.00
2018,04,11,08,00,10.60
2018,04,11,08,01,14.00
2018,04,11,08,02,10.90
2018,04,11,08,03,8.50
2018,04,11,08,04,7.50
2018,04,11,08,05,11.60
2018,04,11,08,06,12.70
2018,04,11,08,07,14.60
2018,04,11,08,08,13.30
2018,04,11,08,09,15.00
2018,04,11,08,10,11.00
2018,04,11,08,11,15.00
2018,04,11,08,12,9.70
2018,04,11,08,13,13.00
2018,04,11,08,14,16.30
2018,04,11,08,15,15.50
2018,04,11,08,16,16.00
2018,04,11,08,17,13.50
2018,04,11,08,18,11.80
2018,04,11,08,19,10.40
2018,04,11,08,20,12.30
2018,04,11,08,21,13.20
2018,04,11,08,22,9.70
2018,04,11,08,23,7.40
2018,04,11,08,24,12.90
2018,04,11,08,25,7.60
2018,04,11,08,26,9.80
2018,04,11,08,27,13.20
2018,04,11,08,28,13.50
2018,04,11,08,29,11.60
2018,04,11,08,30,16.10
2018,04,11,08,31,14.20
2018,04,11,08,32,13.70
2018,04,11,08,33,12.30
2018,04,11,08,34,12.30
2018,04,11,08,35,11.70
2018,04,11,08,36,12.40
2018,04,11,08,37,15.70
2018,04,11,08,38,13.30
2018,04,11,08,39,7.70
2018,04,11,08,40,7.20
2018,04,11,08,41,15.50
2018,04,11,08,42,14.20
2018,04,11,08,43,10.90
2018,04,11,08,44,10.80
2018,04,11,08,45,11.90
2018,04,11,08,46,8.80
2018,04,11,08,47,9.30
2018,04,11,08,48,10.80
2018,04,11,08,49,8.50
2018,04,11,08,50,11.10
2018,04,11,08,51,7.70
2018,04,11,08,52,8.20
2018,04,11,08,53,9.00
2018,04,11,08,54,6.10
2018,04,11,08,55,7.80
2018,04,11,08,56,8.30
2018,04,11,08,57,6.40
2018,04,11,08,58,7.00
2018,04,11,08,59,6.80
2018,04,11,09,00,11.10
2018,04,11,09,01,11.90
2018,04,11,09,02,10.00
2018,04,11,09,03,8.20
2018,04,11,09,04,6.80
2018,04,11,09,05,6.30
2018,04,11,09,06,10.00
2018,04,11,09,07,8.50
2018,04,11,09,08,13.40
2018,04,11,09,09,13.60
2018,04,11,09,10,13.90
2018,04,11,09,11,10.50
2018,04,11,09,12,13.60
2018,04,11,09,13,13.30
2018,04,11,09,14,8.90
2018,04,11,09,15,7.20
2018,04,11,09,16,6.80
2018,04,11,09,17,9.60
2018,04,11,09,18,10.10
2018,04,11,09,19,14.20
2018,04,11,09,20,13.80
2018,04,11,09,21,9.70
2018,04,11,09,22,9.70
2018,04,11,09,23,12.60
2018,04,11,09,24,10.90
2018,04,11,09,25,12.20
2018,04,11,09,26,16.30
2018,04,11,09,27,10.00
2018,04,11,09,28,11.00
2018,04,11,09,29,10.30
2018,04,11,09,30,6.40
2018,04,11,09,31,10.30
2018,04,11,09,32,18.40
2018,04,11,09,33,13.60
2018,04,11,09,34,18.70
2018,04,11,09,35,14.60
2018,04,11,09,36,12.80
2018,04,11,09,37,14.60
2018,04,11,09,38,13.40
2018,04,11,09,39,17.10
2018,04,11,09,40,17.30
2018,04,11,09,41,14.90
2018,04,11,09,42,18.30
2018,04,11,09,43,16.30
2018,04,11,09,44,15.60
2018,04,11,09,45,16.90
2018,04,11,09,46,14.60
2018,04,11,09,47,19.70
2018,04,11,09,48,12.00
2018,04,11,09,49,17.50
2018,04,11,09,50,17.40
2018,04,11,09,51,17.90
2018,04,11,09,52,16.70
2018,04,11,09,53,15.40
2018,04,11,09,54,18.40
2018,04,11,09,55,14.70
2018,04,11,09,56,9.90
2018,04,11,09,57,18.30
2018,04,11,09,58,18.50
2018,04,11,09,59,17.90
2018,04,11,10,00,17.90
2018,04,11,10,01,14.50
2018,04,11,10,02,19.60
2018,04,11,10,03,17.20
2018,04,11,10,04,15.20
2018,04,11,10,05,15.90
2018,04,11,10,06,17.50
2018,04,11,10,07,15.50
2018,04,11,10,08,16.70
2018,04,11,10,09,13.80
2018,04,11,10,10,9.10
2018,04,11,10,11,12.30
2018,04,11,10,12,14.90
2018,04,11,10,13,19.00
2018,04,11,10,14,15.30
2018,04,11,10,15,13.30
2018,04,11,10,16,18.80
2018,04,11,10,17,20.00
2018,04,11,10,18,17.10
2018,04,11,10,19,18.50
2018,04,11,10,20,14.40
2018,04,11,10,21,19.50
2018,04,11,10,22,15.40
2018,04,11,10,23,13.90
2018,04,11,10,24,14.90
2018,04,11,10,25,17.90
2018,04,11,10,26,12.90
2018,04,11,10,27,14.80
2018,04,11,10,28,11.50
2018,04,11,10,29,6.90
2018,04,11,10,30,13.30
2018,04,11,10,31,13.80
2018,04,11,10,32,15.40
2018,04,11,10,33,17.50
2018,04,11,10,34,18.40
2018,04,11,10,35,11.70
2018,04,11,10,36,12.00
2018,04,11,10,37,17.70
2018,04,11,10,38,14.70
2018,04,11,10,39,13.60
2018,04,11,10,40,18.70
2018,04,11,10,41,16.00
2018,04,11,10,42,21.30
2018,04,11,10,43,14.90
2018,04,11,10,44,17.00
2018,04,11,10,45,12.90
2018,04,11,10,46,15.30
2018,04,11,10,47,16.80
2018,04,11,10,48,16.70
2018,04,11,10,49,16.50
2018,04,11,10,50,13.00
2018,04,11,10,51,8.50
2018,04,11,10,52,10.30
2018,04,11,10,53,10.10
2018,04,11,10,54,16.00
2018,04,11,10,55,16.30
2018,04,11,10,56,11.20
2018,04,11,10,57,11.70
2018,04,11,10,58,18.50
2018,04,11,10,59,12.90
2018,04,11,11,00,13.70
2018,04,11,11,01,12.90
2018,04,11,11,02,11.90
2018,04,11,11,03,18.30
2018,04,11,11,04,16.30
2018,04,11,11,05,17.50
2018,04,11,11,06,19.60
2018,04,11,11,07,18.80
2018,04,11,11,08,14.20
2018,04,11,11,09,17.10
2018,04,11,11,10,19.30
2018,04,11,11,11,18.30
2018,04,11,11,12,19.70
2018,04,11,11,13,18.30
2018,04,11,11,14,18.50
2018,04,11,11,15,20.70
2018,04,11,11,16,19.50
2018,04,11,11,17,22.80
2018,04,11,11,18,20.50
2018,04,11,11,19,20.00
2018,04,11,11,20,16.50
2018,04,11,11,21,18.80
2018,04,11,11,22,19.20
2018,04,11,11,23,17.70
2018,04,11,11,24,21.40
2018,04,11,11,25,18.30
2018,04,11,11,26,16.70
2018,04,11,11,27,23.20
2018,04,11,11,28,23.60
2018,04,11,11,29,15.80
2018,04,11,11,30,15.60
2018,04,11,11,31,23.60
2018,04,11,11,32,25.10
2018,04,11,11,33,28.40
2018,04,11,11,34,28.60
2018,04,11,11,35,22.70
2018,04,11,11,36,22.30
2018,04,11,11,37,17.20
2018,04,11,11,38,21.90
2018,04,11,11,39,22.80
2018,04,11,11,40,19.20
2018,04,11,11,41,24.90
2018,04,11,11,42,23.30
2018,04,11,11,43,21.40
2018,04,11,11,44,22.80
2018,04,11,11,45,21.50
2018,04,11,11,46,21.60
2018,04,11,11,47,21.20
2018,04,11,11,48,14.40
2018,04,11,11,49,20.80
2018,04,11,11,50,20.70
2018,04,11,11,51,21.50
2018,04,11,11,52,18.60
2018,04,11,11,53,23.90
2018,04,11,11,54,16.40
2018,04,11,11,55,18.70
2018,04,11,11,56,25.80
2018,04,11,11,57,24.10
2018,04,11,11,58,25.20
2018,04,11,11,59,26.20
2018,04,11,12,00,23.70
2018,04,11,12,01,24.70
2018,04,11,12,02,25.80
2018,04,11,12,03,29.90
2018,04,11,12,04,28.60
2018,04,11,12,05,22.80
2018,04,11,12,06,21.70
2018,04,11,12,07,29.00
2018,04,11,12,08,26.30
2018,04,11,12,09,30.00
2018,04,11,12,10,25.70
2018,04,11,12,11,21.00
2018,04,11,12,12,26.40
2018,04,11,12,13,22.40
2018,04,11,12,14,27.00
2018,04,11,12,15,22.00
2018,04,11,12,16,24.10
2018,04,11,12,17,24.90
2018,04,11,12,18,21.50
2018,04,11,12,19,23.80
2018,04,11,12,20,20.10
2018,04,11,12,21,20.00
2018,04,11,12,22,19.40
2018,04,11,12,23,23.00
2018,04,11,12,24,24.40
2018,04,11,12,25,28.20
2018,04,11,12,26,25.40
2018,04,11,12,27,25.00
2018,04,11,12,28,23.70
2018,04,11,12,29,13.90
2018,04,11,12,30,23.40
2018,04,11,12,31,21.10
2018,04,11,12,32,21.30
2018,04,11,12,33,18.40
2018,04,11,12,34,26.20
2018,04,11,12,35,17.30
2018,04,11,12,36,21.20
2018,04,11,12,37,22.70
2018,04,11,12,38,19.20
2018,04,11,12,39,26.40
2018,04,11,12,40,20.70
2018,04,11,12,41,23.00
2018,04,11,12,42,25.10
2018,04,11,12,43,17.10
2018,04,11,12,44,23.50
2018,04,11,12,45,26.00
2018,04,11,12,46,22.00
2018,04,11,12,47,22.50
2018,04,11,12,48,20.20
2018,04,11,12,49,22.40
2018,04,11,12,50,21.70
2018,04,11,12,51,26.20
2018,04,11,12,52,19.40
2018,04,11,12,53,26.60
2018,04,11,12,54,20.00
2018,04,11,12,55,21.30
2018,04,11,12,56,29.30
2018,04,11,12,57,21.60
2018,04,11,12,58,20.70
2018,04,11,12,59,18.70
2018,04,11,13,00,28.40
2018,04,11,13,01,26.60
2018,04,11,13,02,22.80
2018,04,11,13,03,25.80
2018,04,11,13,04,23.20
2018,04,11,13,05,24.70
2018,04,11,13,06,29.40
2018,04,11,13,07,22.80
2018,04,11,13,08,27.70
2018,04,11,13,09,25.20
2018,04,11,13,10,23.00
2018,04,11,13,11,21.00
2018,04,11,13,12,20.90
2018,04,11,13,13,23.50
2018,04,11,13,14,25.60
2018,04,11,13,15,28.10
2018,04,11,13,16,25.20
2018,04,11,13,17,27.80
2018,04,11,13,18,27.60
2018,04,11,13,19,26.60
2018,04,11,13,20,30.70
2018,04,11,13,21,36.50
2018,04,11,13,22,24.50
2018,04,11,13,23,31.10
2018,04,11,13,24,29.50
2018,04,11,13,25,19.20
2018,04,11,13,26,20.40
2018,04,11,13,27,21.90
2018,04,11,13,28,20.50
2018,04,11,13,29,28.00
2018,04,11,13,30,13.80
2018,04,11,13,31,27.00
2018,04,11,13,32,30.00
2018,04,11,13,33,33.00
2018,04,11,13,34,21.20
2018,04,11,13,35,31.30
2018,04,11,13,36,26.00
2018,04,11,13,37,34.20
2018,04,11,13,38,33.20
2018,04,11,13,39,27.70
2018,04,11,13,40,34.00
2018,04,11,13,41,25.40
2018,04,11,13,42,19.50
2018,04,11,13,43,28.50
2018,04,11,13,44,28.20
2018,04,11,13,45,21.50
2018,04,11,13,46,28.10
2018,04,11,13,47,37.60
2018,04,11,13,48,36.50
2018,04,11,13,49,26.10
2018,04,11,13,50,19.40
2018,04,11,13,51,14.50
2018,04,11,13,52,19.90
2018,04,11,13,53,22.80
2018,04,11,13,54,24.30
2018,04,11,13,55,17.60
2018,04,11,13,56,6.70
2018,04,11,13,57,3.70
2018,04,11,13,58,10.80
2018,04,11,13,59,28.50
2018,04,11,14,00,22.60
2018,04,11,14,01,20.90
2018,04,11,14,02,26.70
2018,04,11,14,03,14.60
2018,04,11,14,04,12.40
2018,04,11,14,05,15.10
2018,04,11,14,06,19.20
2018,04,11,14,07,27.30
2018,04,11,14,08,17.00
2018,04,11,14,09,22.20
2018,04,11,14,10,12.30
2018,04,11,14,11,22.00
2018,04,11,14,12,30.60
2018,04,11,14,13,34.50
2018,04,11,14,14,16.50
2018,04,11,14,15,5.40
2018,04,11,14,16,13.40
2018,04,11,14,17,23.70
2018,04,11,14,18,26.70
2018,04,11,14,19,45.50
2018,04,11,14,20,29.70
2018,04,11,14,21,13.90
2018,04,11,14,22,20.30
2018,04,11,14,23,28.30
2018,04,11,14,24,25.00
2018,04,11,14,25,19.60
2018,04,11,14,26,26.40
2018,04,11,14,27,18.10
2018,04,11,14,28,6.00
2018,04,11,14,29,19.60
2018,04,11,14,30,24.50
2018,04,11,14,31,26.00
2018,04,11,14,32,28.60
2018,04,11,14,33,23.70
2018,04,11,14,34,12.00
2018,04,11,14,35,17.60
2018,04,11,14,36,14.00
2018,04,11,14,37,17.30
2018,04,11,14,38,15.40
2018,04,11,14,39,12.30
2018,04,11,14,40,16.70
2018,04,11,14,41,24.00
2018,04,11,14,42,8.30
2018,04,11,14,43,13.20
2018,04,11,14,44,13.80
2018,04,11,14,45,15.70
2018,04,11,14,46,14.20
2018,04,11,14,47,22.00
2018,04,11,14,48,21.00
2018,04,11,14,49,30.50
2018,04,11,14,50,25.80
2018,04,11,14,51,11.10
2018,04,11,14,52,15.10
2018,04,11,14,53,17.10
2018,04,11,14,54,22.40
2018,04,11,14,55,18.80
2018,04,11,14,56,17.70
2018,04,11,14,57,28.50
2018,04,11,14,58,34.00
2018,04,11,14,59,23.50
2018,04,11,15,00,14.10
2018,04,11,15,01,14.00
2018,04,11,15,02,5.20
2018,04,11,15,03,7.20
2018,04,11,15,04,20.60
2018,04,11,15,05,32.50
2018,04,11,15,06,34.50
2018,04,11,15,07,14.30
2018,04,11,15,08,7.40
2018,04,11,15,09,0.90
2018,04,11,15,10,8.50
2018,04,11,15,11,25.30
2018,04,11,15,12,22.50
2018,04,11,15,13,21.30
2018,04,11,15,14,15.20
2018,04,11,15,15,11.60
2018,04,11,15,16,15.90
2018,04,11,15,17,15.10
2018,04,11,15,18,19.90
2018,04,11,15,19,16.60
2018,04,11,15,20,7.50
2018,04,11,15,21,16.30
2018,04,11,15,22,18.60
2018,04,11,15,23,32.50
2018,04,11,15,24,15.00
2018,04,11,15,25,16.50
2018,04,11,15,26,22.00
2018,04,11,15,27,12.60
2018,04,11,15,28,14.20
2018,04,11,15,29,17.00
2018,04,11,15,30,22.00
2018,04,11,15,31,17.60
2018,04,11,15,32,20.50
2018,04,11,15,33,22.20
2018,04,11,15,34,23.80
2018,04,11,15,35,21.00
2018,04,11,15,36,17.90
2018,04,11,15,37,18.70
2018,04,11,15,38,15.40
2018,04,11,15,39,21.90
2018,04,11,15,40,19.80
2018,04,11,15,41,20.80
2018,04,11,15,42,20.40
2018,04,11,15,43,14.40
2018,04,11,15,44,16.80
2018,04,11,15,45,18.50
2018,04,11,15,46,24.10
2018,04,11,15,47,20.00
2018,04,11,15,48,21.70
2018,04,11,15,49,19.90
2018,04,11,15,50,17.20
2018,04,11,15,51,14.10
2018,04,11,15,52,19.00
2018,04,11,15,53,20.10
2018,04,11,15,54,29.80
2018,04,11,15,55,20.60
2018,04,11,15,56,13.00
2018,04,11,15,57,10.30
2018,04,11,15,58,9.10
2018,04,11,15,59,10.80
2018,04,11,16,00,15.00
2018,04,11,16,01,15.80
2018,04,11,16,02,15.40
2018,04,11,16,03,6.20
2018,04,11,16,04,13.90
2018,04,11,16,05,18.40
2018,04,11,16,06,20.50
2018,04,11,16,07,19.20
2018,04,11,16,08,18.30
2018,04,11,16,09,25.80
2018,04,11,16,10,21.50
2018,04,11,16,11,24.80
2018,04,11,16,12,20.30
2018,04,11,16,13,14.20
2018,04,11,16,14,14.50
2018,04,11,16,15,18.60
2018,04,11,16,16,13.30
2018,04,11,16,17,20.00
2018,04,11,16,18,17.90
2018,04,11,16,19,11.50
2018,04,11,16,20,20.20
2018,04,11,16,21,20.40
2018,04,11,16,22,17.90
2018,04,11,16,23,19.20
2018,04,11,16,24,14.20
2018,04,11,16,25,17.50
2018,04,11,16,26,14.30
2018,04,11,16,27,15.70
2018,04,11,16,28,19.80
2018,04,11,16,29,24.90
2018,04,11,16,30,17.10
2018,04,11,16,31,19.60
2018,04,11,16,32,26.10
2018,04,11,16,33,21.80
2018,04,11,16,34,21.60
2018,04,11,16,35,19.20
2018,04,11,16,36,22.60
2018,04,11,16,37,19.50
2018,04,11,16,38,16.30
2018,04,11,16,39,20.80
2018,04,11,16,40,24.70
2018,04,11,16,41,21.20
2018,04,11,16,42,20.40
2018,04,11,16,43,22.20
2018,04,11,16,44,19.70
2018,04,11,16,45,20.70
2018,04,11,16,46,24.40
2018,04,11,16,47,26.40
2018,04,11,16,48,21.60
2018,04,11,16,49,27.40
2018,04,11,16,50,23.10
2018,04,11,16,51,24.40
2018,04,11,16,52,22.70
2018,04,11,16,53,22.20
2018,04,11,16,54,23.60
2018,04,11,16,55,22.90
2018,04,11,16,56,13.80
2018,04,11,16,57,25.10
2018,04,11,16,58,21.70
2018,04,11,16,59,15.50
2018,04,11,17,00,17.90
2018,04,11,17,01,24.50
2018,04,11,17,02,19.20
2018,04,11,17,03,14.50
2018,04,11,17,04,18.20
2018,04,11,17,05,20.20
2018,04,11,17,06,17.10
2018,04,11,17,07,10.80
2018,04,11,17,08,10.50
2018,04,11,17,09,13.60
2018,04,11,17,10,14.80
2018,04,11,17,11,19.10
2018,04,11,17,12,20.00
2018,04,11,17,13,11.60
2018,04,11,17,14,8.20
2018,04,11,17,15,15.30
2018,04,11,17,16,12.40
2018,04,11,17,17,9.30
2018,04,11,17,18,8.10
2018,04,11,17,19,9.70
2018,04,11,17,20,14.30
2018,04,11,17,21,12.70
2018,04,11,17,22,16.10
2018,04,11,17,23,8.10
2018,04,11,17,24,7.40
2018,04,11,17,25,10.20
2018,04,11,17,26,9.80
2018,04,11,17,27,7.60
2018,04,11,17,28,5.40
2018,04,11,17,29,7.20
2018,04,11,17,30,6.70
2018,04,11,17,31,11.90
2018,04,11,17,32,10.50
2018,04,11,17,33,17.80
2018,04,11,17,34,12.10
2018,04,11,17,35,8.10
2018,04,11,17,36,9.40
2018,04,11,17,37,13.10
2018,04,11,17,38,10.50
2018,04,11,17,39,9.90
2018,04,11,17,40,15.00
2018,04,11,17,41,12.50
2018,04,11,17,42,8.60